Change the Weather History Date:

Thursday, July 12, 2012

  Actual Average Record
Temperature  
Mean Temperature 70 °F 69 °F  
Max Temperature 89 °F 80 °F 94 °F (1987)
Min Temperature 51 °F 58 °F 41 °F (1971)
Cooling Degree Days 5 5  
Month to date cooling degree days 63 57  
Year to date cooling degree days 215 146  
Since 1 June cooling degree days 177 132  
Growing Degree Days 20 (Base 50)    
Moisture  
Dew Point 54 °F    
Average Humidity 64    
Maximum Humidity 96    
Minimum Humidity 31    
Precipitation  
Precipitation 0.00 in 0.11 in 1.07 in (1950)
Month to date precipitation 0.14 1.35  
Year to date precipitation 13.85 16.80  
Sea Level Pressure  
Sea Level Pressure 30.12 in    
Wind  
Wind Speed 6 mph (SW)    
Max Wind Speed 16 mph    
Max Gust Speed 20 mph    
Visibility 10 miles    
Events      
T = Trace of Precipitation, MM = Missing Value Source: NWS Daily Summary

Daily Weather History Graph

Daily Weather History Graph

Search for Another Location

Airport or City:

Trip Planner

Search our weather history database for the weather conditions in past years. The results will help you decide how hot, cold, wet, or windy it might be!

Date:

Astronomy

Jul. 12, 2012 Rise Set
Actual Time 5:24 AM EDT 8:44 PM EDT
Civil Twilight 4:48 AM EDT 9:20 PM EDT
Nautical Twilight 4:01 AM EDT 10:07 PM EDT
Astronomical Twilight 3:02 AM EDT 11:06 PM EDT
Moon 12:33 AM EDT (7/12) 3:10 PM EDT (7/12)
Length of Visible Light 16h 31m
Length of Day
15h 19m
Waning Crescent, 35% of the Moon is Illuminated
Jul 12
Waning Crescent
Jul 19
New
Jul 26
First Quarter
Aug 1
Full
Aug 9
Last Quarter

Hourly Weather History & Observations

Time (EDT) Temp. Heat Index Dew Point Humidity Pressure Visibility Wind Dir Wind Speed Gust Speed Precip Events Conditions
12:53 AM 55.0 °F - 52.0 °F 89% 30.12 in 10.0 mi Calm Calm - N/A   Clear
1:53 AM 59.0 °F - 51.1 °F 75% 30.12 in 10.0 mi Calm Calm - N/A   Clear
2:53 AM 55.9 °F - 51.1 °F 84% 30.13 in 10.0 mi Calm Calm - N/A   Clear
3:53 AM 55.9 °F - 52.0 °F 87% 30.12 in 10.0 mi SW 5.8 mph - N/A   Clear
4:53 AM 52.0 °F - 50.0 °F 93% 30.14 in 10.0 mi Calm Calm - N/A   Clear
5:53 AM 54.0 °F - 52.0 °F 93% 30.15 in 10.0 mi Calm Calm - N/A   Clear
6:53 AM 60.1 °F - 55.0 °F 83% 30.15 in 10.0 mi Calm Calm - N/A   Clear
7:53 AM 66.0 °F - 54.0 °F 65% 30.16 in 10.0 mi SW 6.9 mph - N/A   Clear
8:53 AM 73.0 °F - 55.0 °F 53% 30.16 in 10.0 mi SW 6.9 mph - N/A   Clear
9:53 AM 77.0 °F - 57.0 °F 50% 30.16 in 10.0 mi SW 9.2 mph - N/A   Clear
10:53 AM 81.0 °F 81.0 °F 57.0 °F 44% 30.15 in 10.0 mi SW 9.2 mph - N/A   Clear
11:53 AM 84.0 °F 82.9 °F 55.0 °F 37% 30.14 in 10.0 mi SW 8.1 mph - N/A   Clear
12:53 PM 84.9 °F 83.6 °F 55.0 °F 36% 30.14 in 10.0 mi WSW 12.7 mph 16.1 mph N/A   Clear
1:53 PM 87.1 °F 85.1 °F 54.0 °F 32% 30.12 in 10.0 mi WSW 10.4 mph - N/A   Clear
2:53 PM 88.0 °F 85.7 °F 53.1 °F 30% 30.11 in 10.0 mi WSW 9.2 mph - N/A   Clear
3:53 PM 88.0 °F 85.7 °F 53.1 °F 30% 30.09 in 10.0 mi WSW 9.2 mph - N/A   Clear
4:53 PM 88.0 °F 85.7 °F 53.1 °F 30% 30.08 in 10.0 mi SW 10.4 mph - N/A   Clear
5:53 PM 87.1 °F 84.9 °F 53.1 °F 31% 30.07 in 10.0 mi SW 8.1 mph - N/A   Clear
6:53 PM 82.9 °F 82.1 °F 55.9 °F 39% 30.06 in 10.0 mi SSW 5.8 mph - N/A   Clear
7:53 PM 78.1 °F - 59.0 °F 52% 30.08 in 10.0 mi SW 6.9 mph - N/A   Clear
8:53 PM 73.0 °F - 57.0 °F 57% 30.08 in 10.0 mi SW 4.6 mph - N/A   Clear
9:53 PM 69.1 °F - 57.0 °F 65% 30.09 in 10.0 mi SW 5.8 mph - N/A   Clear
10:53 PM 66.9 °F - 57.0 °F 70% 30.10 in 10.0 mi Calm Calm - N/A   Clear
11:53 PM 64.9 °F - 57.0 °F 75% 30.10 in 10.0 mi Calm Calm - N/A   Clear